Weather History for Romeoville, IL

Change the Weather History Date:

Monday, October 28, 2013

  Actual Average Record
Temperature  
Mean Temperature 44 °F 49 °F  
Max Temperature 56 °F 58 °F 81 °F (1999)
Min Temperature 32 °F 40 °F 25 °F (1997)
Degree Days  
Heating Degree Days 21 16  
Month to date heating degree days 364 336  
Since 1 July heating degree days 436 435  
Cooling Degree Days 0 0  
Month to date cooling degree days 30 12  
Year to date cooling degree days 950 859  
Moisture  
Dew Point 36 °F    
Average Humidity 76    
Maximum Humidity 92    
Minimum Humidity 56    
Precipitation  
Precipitation 0.00 in 0.10 in 0.06 in (2003)
Month to date precipitation 2.85 3.11  
Year to date precipitation 33.74 34.06  
Snow  
Snow 0.00 in 0.00 in - ()
Month to date snowfall T 0.0  
Since 1 July snowfall T 0.0  
Since 1 September snowfall T 0.0  
Snow Depth 0.00 in    
Sea Level Pressure  
Sea Level Pressure 30.23 in    
Wind  
Wind Speed 7 mph (ENE)    
Max Wind Speed 17 mph    
Max Gust Speed 21 mph    
Visibility 10 miles    
Events      
T = Trace of Precipitation, MM = Missing Value Source: NWS Daily Summary

Daily Weather History Graph

Daily Weather History Graph

Search for Another Location

Airport:

Trip Planner

Search our weather history database for the weather conditions in past years. The results will help you decide how hot, cold, wet, or windy it might be!

Date:

Astronomy

Oct. 28, 2013 Rise Set
Actual Time 7:19 AM CDT 5:51 PM CDT
Civil Twilight 6:51 AM CDT 6:20 PM CDT
Nautical Twilight 6:18 AM CDT 6:53 PM CDT
Astronomical Twilight 5:46 AM CDT 7:25 PM CDT
Moon 1:08 AM CDT (10/28) 2:37 PM CDT (10/28)
Length of Visible Light 11h 29m
Length of Day
10h 32m
Waning Crescent, 34% of the Moon is Illuminated
Oct 28
Waning Crescent
Nov 3
New
Nov 9
First Quarter
Nov 17
Full
Nov 25
Last Quarter

Hourly Weather History & Observations

Time (CDT) Temp. Windchill Dew Point Humidity Pressure Visibility Wind Dir Wind Speed Gust Speed Precip Events Conditions
12:15 AM 37.9 °F 34.4 °F 31.1 °F 76% 30.07 in 10.0 mi SW 4.6 mph - N/A   Mostly Cloudy
12:35 AM 37.4 °F 33.8 °F 31.1 °F 78% 30.07 in 10.0 mi SSW 4.6 mph - N/A   Mostly Cloudy
12:55 AM 37.0 °F 33.3 °F 30.9 °F 79% 30.07 in 10.0 mi SSW 4.6 mph - N/A   Mostly Cloudy
1:15 AM 34.7 °F 30.6 °F 29.8 °F 82% 30.07 in 10.0 mi SSW 4.6 mph - N/A   Scattered Clouds
1:35 AM 35.4 °F - 30.2 °F 81% 30.08 in 10.0 mi Calm Calm - N/A   Clear
1:55 AM 34.7 °F 31.8 °F 30.4 °F 84% 30.08 in 10.0 mi South 3.5 mph - N/A   Clear
2:15 AM 34.7 °F 30.6 °F 30.7 °F 85% 30.08 in 10.0 mi SSE 4.6 mph - N/A   Clear
2:35 AM 34.9 °F 29.9 °F 30.4 °F 84% 30.09 in 10.0 mi South 5.8 mph - N/A   Clear
2:55 AM 34.0 °F 28.8 °F 30.0 °F 85% 30.09 in 10.0 mi SSE 5.8 mph - N/A   Clear
3:15 AM 33.8 °F 30.8 °F 30.2 °F 87% 30.09 in 10.0 mi SSE 3.5 mph - N/A   Clear
3:35 AM 33.6 °F 29.4 °F 29.7 °F 85% 30.09 in 10.0 mi SSE 4.6 mph - N/A   Clear
3:55 AM 33.3 °F 28.9 °F 29.7 °F 87% 30.10 in 10.0 mi South 4.6 mph - N/A   Clear
4:15 AM 33.8 °F 29.6 °F 30.0 °F 86% 30.10 in 10.0 mi South 4.6 mph - N/A   Clear
4:35 AM 32.9 °F 28.5 °F 29.3 °F 87% 30.11 in 10.0 mi South 4.6 mph - N/A   Clear
4:55 AM 32.4 °F - 29.3 °F 88% 30.12 in 10.0 mi Calm Calm - N/A   Clear
5:15 AM 31.8 °F 28.5 °F 28.4 °F 87% 30.12 in 10.0 mi SSE 3.5 mph - N/A   Clear
5:35 AM 34.7 °F 28.8 °F 30.0 °F 83% 30.15 in 10.0 mi NNE 6.9 mph 18.4 mph N/A   Clear
5:55 AM 32.2 °F - 28.4 °F 86% 30.15 in 10.0 mi Calm Calm - N/A   Clear
6:15 AM 31.3 °F - 27.9 °F 87% 30.16 in 10.0 mi Calm Calm - N/A   Clear
6:35 AM 30.4 °F - 27.7 °F 90% 30.17 in 10.0 mi Calm Calm - N/A   Clear
6:55 AM 31.3 °F - 28.2 °F 88% 30.18 in 10.0 mi Calm Calm - N/A   Clear
7:15 AM 32.5 °F 29.3 °F 29.3 °F 88% 30.18 in 10.0 mi NW 3.5 mph - N/A   Clear
7:35 AM 32.4 °F - 30.4 °F 92% 30.20 in 10.0 mi Calm Calm - N/A   Clear
7:55 AM 32.4 °F - 29.7 °F 90% 30.20 in 10.0 mi Calm Calm - N/A   Clear
8:15 AM 34.3 °F - 31.1 °F 88% 30.21 in 10.0 mi Calm Calm - N/A   Clear
8:35 AM 37.4 °F - 32.9 °F 84% 30.22 in 10.0 mi Calm Calm - N/A   Clear
8:55 AM 39.7 °F - 34.0 °F 80% 30.23 in 10.0 mi Calm Calm - N/A   Mostly Cloudy
9:15 AM 43.5 °F 40.9 °F 37.8 °F 80% 30.24 in 10.0 mi NE 4.6 mph - N/A   Overcast
9:35 AM 46.8 °F - 39.9 °F 77% 30.24 in 10.0 mi ENE 4.6 mph - N/A   Scattered Clouds
9:55 AM 49.6 °F - 41.5 °F 74% 30.24 in 10.0 mi ENE 9.2 mph - N/A   Clear
10:15 AM 51.3 °F - 42.1 °F 71% 30.25 in 10.0 mi ENE 10.4 mph 16.1 mph N/A   Clear
10:35 AM 52.2 °F - 42.4 °F 69% 30.25 in 10.0 mi East 9.2 mph - N/A   Scattered Clouds
10:55 AM 52.7 °F - 41.7 °F 66% 30.26 in 10.0 mi East 12.7 mph - N/A   Scattered Clouds
11:15 AM 53.6 °F - 41.5 °F 64% 30.26 in 10.0 mi East 10.4 mph - N/A   Scattered Clouds
11:35 AM 53.8 °F - 41.4 °F 63% 30.27 in 10.0 mi ENE 9.2 mph - N/A   Scattered Clouds
11:55 AM 54.5 °F - 41.7 °F 62% 30.27 in 10.0 mi ENE 9.2 mph - N/A   Mostly Cloudy
12:15 PM 54.3 °F - 41.0 °F 61% 30.27 in 10.0 mi ENE 8.1 mph - N/A   Scattered Clouds
12:35 PM 55.4 °F - 41.4 °F 59% 30.27 in 10.0 mi East 8.1 mph - N/A   Clear
12:55 PM 55.4 °F - 41.0 °F 58% 30.26 in 10.0 mi NE 9.2 mph 16.1 mph N/A   Clear
1:15 PM 55.0 °F - 40.5 °F 58% 30.26 in 10.0 mi ENE 8.1 mph - N/A   Clear
1:35 PM 55.6 °F - 39.9 °F 56% 30.25 in 10.0 mi ENE 6.9 mph - N/A   Clear
1:55 PM 55.6 °F - 39.9 °F 56% 30.25 in 10.0 mi NE 9.2 mph - N/A   Clear
2:15 PM 55.2 °F - 40.3 °F 57% 30.25 in 10.0 mi NE 11.5 mph - N/A   Clear
2:35 PM 55.0 °F - 40.6 °F 58% 30.25 in 10.0 mi NE 12.7 mph - N/A   Clear
2:55 PM 53.8 °F - 40.1 °F 60% 30.25 in 10.0 mi NE 13.8 mph - N/A   Clear
3:15 PM 53.6 °F - 39.9 °F 60% 30.25 in 10.0 mi NE 16.1 mph - N/A   Clear
3:35 PM 53.1 °F - 39.7 °F 61% 30.26 in 10.0 mi NE 16.1 mph - N/A   Clear
3:55 PM 52.2 °F - 39.4 °F 62% 30.27 in 10.0 mi ENE 12.7 mph - N/A   Clear
4:15 PM 51.8 °F - 39.2 °F 62% 30.27 in 10.0 mi ENE 13.8 mph - N/A   Clear
4:35 PM 50.5 °F - 38.8 °F 64% 30.27 in 10.0 mi NE 17.3 mph - N/A   Clear
4:55 PM 49.6 °F - 38.7 °F 66% 30.28 in 10.0 mi NE 15.0 mph - N/A   Clear
5:15 PM 48.6 °F - 38.5 °F 68% 30.28 in 10.0 mi NE 15.0 mph 18.4 mph N/A   Clear
5:35 PM 47.7 °F - 38.5 °F 70% 30.29 in 10.0 mi NE 13.8 mph 20.7 mph N/A   Clear
5:55 PM 47.1 °F - 38.5 °F 72% 30.28 in 10.0 mi NE 16.1 mph - N/A   Clear
6:15 PM 46.4 °F 39.8 °F 38.3 °F 73% 30.29 in 10.0 mi NE 16.1 mph 20.7 mph N/A   Clear
6:35 PM 46.0 °F 39.9 °F 38.3 °F 74% 30.30 in 10.0 mi NE 13.8 mph 20.7 mph N/A   Clear
6:55 PM 45.5 °F 40.8 °F 38.3 °F 76% 30.31 in 10.0 mi NE 9.2 mph - N/A   Clear
7:15 PM 44.8 °F 38.7 °F 38.3 °F 78% 30.31 in 10.0 mi NE 12.7 mph 17.3 mph N/A   Clear
7:35 PM 45.0 °F 38.2 °F 38.7 °F 79% 30.32 in 10.0 mi NE 15.0 mph - N/A   Clear
7:55 PM 44.8 °F 38.3 °F 38.5 °F 79% 30.32 in 10.0 mi NE 13.8 mph 19.6 mph N/A   Clear
8:15 PM 44.6 °F 38.1 °F 38.3 °F 79% 30.32 in 10.0 mi NE 13.8 mph - N/A   Clear
8:35 PM 44.2 °F 37.3 °F 37.9 °F 79% 30.33 in 10.0 mi NE 15.0 mph - N/A   Clear
8:55 PM 44.1 °F 37.4 °F 37.8 °F 78% 30.33 in 10.0 mi NE 13.8 mph 19.6 mph N/A   Clear
9:15 PM 44.2 °F 37.6 °F 37.8 °F 78% 30.33 in 10.0 mi NE 13.8 mph - N/A   Clear
9:35 PM 43.7 °F 36.9 °F 37.4 °F 78% 30.34 in 10.0 mi NE 13.8 mph - N/A   Clear
9:55 PM 43.3 °F 36.8 °F 37.6 °F 80% 30.34 in 10.0 mi NE 12.7 mph - N/A   Clear
10:15 PM 42.8 °F 37.0 °F 37.8 °F 82% 30.34 in 10.0 mi NE 10.4 mph - N/A   Clear
10:35 PM 42.4 °F 36.5 °F 37.6 °F 83% 30.34 in 10.0 mi NE 10.4 mph - N/A   Clear
10:55 PM 41.9 °F 35.9 °F 37.4 °F 84% 30.35 in 10.0 mi NE 10.4 mph - N/A   Clear
11:15 PM 42.1 °F 36.1 °F 37.4 °F 83% 30.34 in 10.0 mi NE 10.4 mph - N/A   Clear
11:35 PM 41.7 °F 36.1 °F 37.4 °F 85% 30.34 in 10.0 mi NE 9.2 mph - N/A   Clear
11:55 PM 41.7 °F 36.1 °F 37.4 °F 85% 30.34 in 10.0 mi NE 9.2 mph - N/A   Clear